Weather History for Kendall, FL

Change the Weather History Date:

Tuesday, November 26, 2013

  Actual Average Record
Temperature  
Mean Temperature 77 °F -  
Max Temperature 82 °F 80 °F 87 °F (1996)
Min Temperature 72 °F 64 °F 54 °F (2008)
Cooling Degree Days 12    
Growing Degree Days 27 (Base 50)    
Moisture  
Dew Point 73 °F    
Average Humidity 86    
Maximum Humidity 94    
Minimum Humidity 74    
Precipitation  
Precipitation 0.65 in - - ()
Sea Level Pressure  
Sea Level Pressure 29.94 in    
Wind  
Wind Speed 13 mph (SSE)    
Max Wind Speed 20 mph    
Max Gust Speed 32 mph    
Visibility 9 miles    
Events Rain , Thunderstorm    
Averages and records for this station are not official NWS values.
T = Trace of Precipitation, MM = Missing Value Source: NWS Daily Summary

Daily Weather History Graph

Daily Weather History Graph

Search for Another Location

Airport:

Trip Planner

Search our weather history database for the weather conditions in past years. The results will help you decide how hot, cold, wet, or windy it might be!

Date:

Astronomy

Nov. 26, 2013 Rise Set
Actual Time 6:47 AM EST 5:30 PM EST
Civil Twilight 6:22 AM EST 5:55 PM EST
Nautical Twilight 5:54 AM EST 6:23 PM EST
Astronomical Twilight 5:26 AM EST 6:51 PM EST
Moon 12:27 AM EST (11/26) 1:01 PM EST (11/26)
Length of Visible Light 11h 32m
Length of Day
10h 43m
Last Quarter, 41% of the Moon is Illuminated
Nov 26
Last Quarter
Dec 2
New
Dec 9
First Quarter
Dec 17
Full
Dec 25
Last Quarter

Hourly Weather History & Observations

Time (EST) Temp. Heat Index Dew Point Humidity Pressure Visibility Wind Dir Wind Speed Gust Speed Precip Events Conditions
12:25 AM 73.4 °F - 69.8 °F 88% 30.03 in 9.0 mi East 17.3 mph 27.6 mph 0.00 in Rain Light Rain
12:53 AM 72.0 °F - 70.0 °F 93% 30.04 in 4.0 mi ESE 16.1 mph 32.2 mph 0.08 in Rain Light Rain
1:13 AM 73.4 °F - 71.6 °F 94% 30.03 in 10.0 mi ESE 12.7 mph - 0.00 in   Overcast
1:21 AM 73.4 °F - 71.6 °F 94% 30.03 in 10.0 mi ESE 11.5 mph - 0.00 in   Overcast
1:32 AM 73.4 °F - 71.6 °F 94% 30.02 in 10.0 mi ESE 11.5 mph - 0.00 in   Overcast
1:53 AM 73.9 °F - 71.1 °F 91% 30.01 in 6.0 mi ESE 16.1 mph 20.7 mph 0.02 in Rain Light Rain
2:23 AM 73.4 °F - 71.6 °F 94% 30.00 in 10.0 mi ESE 13.8 mph 21.9 mph 0.00 in   Scattered Clouds
2:53 AM 75.0 °F - 71.1 °F 87% 29.99 in 10.0 mi ESE 17.3 mph - 0.00 in   Mostly Cloudy
3:53 AM 75.9 °F - 71.1 °F 85% 29.99 in 10.0 mi ESE 15.0 mph - N/A   Mostly Cloudy
4:53 AM 75.9 °F - 71.1 °F 85% 29.99 in 10.0 mi ESE 16.1 mph 23.0 mph N/A   Mostly Cloudy
5:53 AM 75.9 °F - 71.1 °F 85% 30.00 in 10.0 mi ESE 12.7 mph - N/A   Partly Cloudy
6:53 AM 75.9 °F - 71.1 °F 85% 29.99 in 10.0 mi SE 13.8 mph 20.7 mph N/A   Partly Cloudy
7:53 AM 77.0 °F - 72.0 °F 84% 29.99 in 10.0 mi SE 15.0 mph - N/A   Clear
8:42 AM 78.8 °F - 73.4 °F 83% 30.00 in 10.0 mi SE 9.2 mph - N/A   Mostly Cloudy
8:53 AM 78.1 °F - 73.0 °F 84% 30.00 in 10.0 mi SE 12.7 mph - N/A   Mostly Cloudy
9:19 AM 78.8 °F - 73.4 °F 83% 30.00 in 10.0 mi SE 8.1 mph 19.6 mph N/A   Partly Cloudy
9:53 AM 80.1 °F 84.2 °F 73.0 °F 79% 29.99 in 10.0 mi SE 13.8 mph 26.5 mph N/A   Scattered Clouds
10:53 AM 80.1 °F 84.2 °F 73.0 °F 79% 29.98 in 10.0 mi SSE 12.7 mph 20.7 mph 0.00 in   Partly Cloudy
11:41 AM 80.6 °F 85.4 °F 73.4 °F 79% 29.96 in 10.0 mi SE 15.0 mph 20.7 mph N/A   Mostly Cloudy
11:53 AM 82.0 °F 87.4 °F 73.0 °F 74% 29.96 in 10.0 mi SE 16.1 mph 25.3 mph N/A   Overcast
12:53 PM 82.0 °F 87.4 °F 73.0 °F 74% 29.92 in 10.0 mi SSE 11.5 mph - N/A   Overcast
1:38 PM 82.4 °F 88.2 °F 73.4 °F 74% 29.90 in 10.0 mi SE 16.1 mph 20.7 mph N/A   Overcast
1:53 PM 82.0 °F 87.4 °F 73.0 °F 74% 29.89 in 10.0 mi South 9.2 mph 17.3 mph N/A   Overcast
2:25 PM 82.4 °F 88.2 °F 73.4 °F 74% 29.88 in 10.0 mi SSE 12.7 mph - N/A   Mostly Cloudy
2:48 PM 80.6 °F 85.4 °F 73.4 °F 79% 29.88 in 10.0 mi SE 12.7 mph 17.3 mph 0.00 in   Overcast
2:53 PM 81.0 °F 86.2 °F 73.9 °F 79% 29.88 in 10.0 mi SSE 11.5 mph 18.4 mph 0.00 in   Mostly Cloudy
3:53 PM 80.1 °F 85.4 °F 75.9 °F 87% 29.87 in 10.0 mi South 6.9 mph - 0.05 in   Scattered Clouds
4:53 PM 80.1 °F 84.5 °F 73.9 °F 81% 29.86 in 10.0 mi South 8.1 mph - N/A   Scattered Clouds
5:53 PM 79.0 °F - 73.9 °F 84% 29.86 in 10.0 mi South 6.9 mph - N/A   Mostly Cloudy
6:53 PM 78.1 °F - 73.9 °F 87% 29.87 in 10.0 mi South 6.9 mph - N/A   Clear
7:53 PM 77.0 °F - 73.9 °F 90% 29.88 in 10.0 mi South 4.6 mph - N/A   Clear
8:53 PM 77.0 °F - 73.9 °F 90% 29.89 in 10.0 mi South 4.6 mph - N/A   Clear
9:53 PM 77.0 °F - 73.9 °F 90% 29.87 in 10.0 mi SSE 4.6 mph - N/A   Partly Cloudy
10:49 PM 77.0 °F - 75.2 °F 94% 29.88 in 10.0 mi South 4.6 mph - N/A Thunderstorm Mostly Cloudy
10:53 PM 77.0 °F - 75.0 °F 94% 29.88 in 10.0 mi South 4.6 mph - N/A Thunderstorm Mostly Cloudy
11:08 PM 77.0 °F - 75.2 °F 94% 29.87 in 3.0 mi Calm Calm - 0.06 in Rain Rain
11:15 PM 77.0 °F - 75.2 °F 94% 29.87 in 9.0 mi Calm Calm - 0.06 in Rain , Thunderstorm Light Rain
11:33 PM 77.0 °F - 75.2 °F 94% 29.87 in 10.0 mi SSW 4.6 mph - 0.07 in Rain , Thunderstorm Light Rain
11:43 PM 75.2 °F - 73.4 °F 94% 29.86 in 1.8 mi South 10.4 mph 20.7 mph 0.33 in Rain , Thunderstorm Heavy Thunderstorms and Rain
11:53 PM 75.0 °F - 72.0 °F 90% 29.87 in 2.0 mi SW 19.6 mph 32.2 mph 0.50 in Rain , Thunderstorm Heavy Thunderstorms and Rain